Location: Cruquius
(52.3348°N, 4.6319°E)
Time: 18:38:14
(UTC+00:00)

Meteor 1-5 Rocket - Pass Details

Date: 12 May 2021
Orbit: 788 x 916 km, 81.2° (Epoch: 21 June)

Event Time Altitude Azimuth Distance (km) Brightness Sun altitude
Rises 20:44:19 0° 346° (NNW) 3,361 8.6 -9.9°
Reaches altitude 10° 20:46:44 10° 346° (NNW) 2,409 7.7 -10.2°
Maximum altitude 20:52:10 82° 259° (W) 812 4.2 -10.7°
Enters shadow 20:57:26 10° 173° (S) 2,341 6.0 -11.2°
